{"data":{"norad_id":49293,"epoch":"2026-09-19T22:26:14.940096Z","epoch_age_seconds":74491,"freshness":"FRESH","line1":"1 49293U 21090Q   26262.93489514  .00000079  00000+0  16260-3 0  9993","line2":"2 49293  87.9142 255.5397 0001877  83.2880 276.8467 13.20772874242333","mean_motion":13.20772874,"eccentricity":0.0001877,"inclination_deg":87.9142,"raan_deg":255.5397,"arg_perigee_deg":83.288,"mean_anomaly_deg":276.8467,"bstar":0.0001626,"rev_number":24233,"period_min":109.02707258356,"perigee_km":1180.3503293883,"apogee_km":1183.1883182223,"semimajor_km":7559.9063238053,"source":"CELESTRAK","updated_at":"2026-09-20T09:00:44.671491Z"}}